| time (UTC) | temp C | wind direction | speed KPH | gust KPH | rain 1hr cm | rain 24hr cm | rain mn cm | humidity % | barometer mb |
| 20260506072516 | 10 | 0 | 1.6 | 3.2 | 0.00 | 0.00 | 0.00 | 80 | 1016.6 |
| 20260506071516 | 9 | 23 | 1.6 | 4.8 | 0.00 | 0.00 | 0.00 | 81 | 1016.6 |
| 20260506070516 | 9 | 0 | 1.6 | 3.2 | 0.00 | 0.00 | 0.00 | 82 | 1016.6 |
| 20260506062517 | 8 | 0 | 1.6 | 3.2 | 0.00 | 0.00 | 0.00 | 85 | 1016.3 |
| 20260506061517 | 8 | 23 | 1.6 | 6.4 | 0.00 | 0.00 | 0.00 | 86 | 1016.4 |
| 20260506060517 | 8 | 0.0 | 1.6 | 0.00 | 0.00 | 0.00 | 86 | 1016.4 | |
| 20260506050536 | 8 | 0.0 | 3.2 | 0.00 | 0.00 | 0.00 | 84 | 1016.2 | |
| 20260506044536 | 8 | 0.0 | 3.2 | 0.00 | 0.00 | 0.00 | 84 | 1016.1 | |
| 20260506043517 | 9 | 23 | 1.6 | 3.2 | 0.00 | 0.00 | 0.00 | 84 | 1016.0 |
| 20260506042537 | 9 | 0.0 | 3.2 | 0.00 | 0.00 | 0.00 | 84 | 1016.0 | |
| 20260506041517 | 9 | 0.0 | 4.8 | 0.00 | 0.00 | 0.00 | 83 | 1016.0 | |
| 20260506040517 | 9 | 0.0 | 3.2 | 0.00 | 0.00 | 0.00 | 83 | 1015.9 | |
| 20260506035517 | 9 | 0.0 | 4.8 | 0.00 | 0.00 | 0.00 | 82 | 1015.9 | |
| 20260506034516 | 10 | 0.0 | 1.6 | 0.00 | 0.00 | 0.00 | 82 | 1015.8 | |
| 20260506033517 | 10 | 0.0 | 3.2 | 0.00 | 0.00 | 0.00 | 82 | 1015.8 | |
| 20260506032517 | 10 | 0.0 | 4.8 | 0.00 | 0.00 | 0.00 | 82 | 1015.9 | |
| 20260506031516 | 10 | 0.0 | 3.2 | 0.00 | 0.00 | 0.00 | 82 | 1016.0 | |
| 20260506030516 | 10 | 0.0 | 3.2 | 0.00 | 0.00 | 0.00 | 81 | 1015.9 | |
| 20260506025516 | 10 | 0.0 | 1.6 | 0.00 | 0.00 | 0.00 | 81 | 1016.0 | |
| 20260506024517 | 10 | 0.0 | 4.8 | 0.00 | 0.00 | 0.00 | 81 | 1015.9 | |
| 20260506023516 | 10 | 0 | 1.6 | 6.4 | 0.00 | 0.00 | 0.00 | 81 | 1015.9 |
| 20260506022516 | 10 | 0.0 | 4.8 | 0.00 | 0.00 | 0.00 | 81 | 1016.0 | |
| 20260506021517 | 10 | 0 | 1.6 | 3.2 | 0.00 | 0.00 | 0.00 | 81 | 1016.0 |
| 20260506020516 | 10 | 0 | 1.6 | 3.2 | 0.00 | 0.00 | 0.00 | 81 | 1016.1 |
| 20260506015517 | 10 | 0.0 | 3.2 | 0.00 | 0.00 | 0.00 | 81 | 1016.1 | |
| 20260506014516 | 10 | 23 | 1.6 | 6.4 | 0.00 | 0.00 | 0.00 | 80 | 1016.1 |
| 20260506013516 | 10 | 0 | 1.6 | 8.0 | 0.00 | 0.00 | 0.00 | 80 | 1016.2 |
| 20260506012557 | 10 | 0.0 | 4.8 | 0.00 | 0.00 | 0.00 | 81 | 1016.2 | |
| 20260506011517 | 11 | 0.0 | 3.2 | 0.00 | 0.00 | 0.00 | 81 | 1016.2 | |
| 20260506010517 | 11 | 0.0 | 4.8 | 0.00 | 0.00 | 0.00 | 81 | 1016.2 | |
| 20260506005516 | 11 | 0.0 | 3.2 | 0.00 | 0.00 | 0.00 | 81 | 1016.3 | |
| 20260506004516 | 11 | 0.0 | 3.2 | 0.00 | 0.00 | 0.00 | 82 | 1016.2 | |
| 20260506003516 | 11 | 23 | 1.6 | 3.2 | 0.00 | 0.00 | 0.00 | 81 | 1016.3 |
| 20260506002516 | 11 | 338 | 1.6 | 3.2 | 0.00 | 0.00 | 0.00 | 80 | 1016.3 |
| 20260506001557 | 11 | 315 | 1.6 | 3.2 | 0.00 | 0.00 | 0.00 | 79 | 1016.4 |
| 20260506000517 | 11 | 338 | 1.6 | 6.4 | 0.00 | 0.00 | 0.00 | 78 | 1016.4 |
| 20260505235516 | 11 | 0.0 | 1.6 | 0.00 | 0.00 | 0.00 | 77 | 1016.3 | |
| 20260505234517 | 11 | 0.0 | 1.6 | 0.00 | 0.00 | 0.00 | 77 | 1016.3 | |
| 20260505233517 | 11 | 0.0 | 3.2 | 0.00 | 0.00 | 0.00 | 76 | 1016.2 | |
| 20260505232516 | 11 | 0.0 | 1.6 | 0.00 | 0.00 | 0.00 | 76 | 1016.3 | |
| 20260505231537 | 11 | 0.0 | 3.2 | 0.00 | 0.00 | 0.00 | 75 | 1016.3 | |
| 20260505230537 | 11 | 0.0 | 3.2 | 0.00 | 0.00 | 0.00 | 75 | 1016.3 | |
| 20260505225517 | 11 | 0.0 | 1.6 | 0.00 | 0.00 | 0.00 | 74 | 1016.3 | |
| 20260505224516 | 11 | 0.0 | 3.2 | 0.00 | 0.00 | 0.00 | 73 | 1016.3 | |
| 20260505223517 | 12 | 315 | 1.6 | 6.4 | 0.00 | 0.00 | 0.00 | 73 | 1016.3 |
| 20260505222516 | 12 | 0.0 | 1.6 | 0.00 | 0.00 | 0.00 | 72 | 1016.3 | |
| 20260505221517 | 12 | 0.0 | 1.6 | 0.00 | 0.00 | 0.00 | 70 | 1016.2 | |
| 20260505220516 | 12 | 0.0 | 3.2 | 0.00 | 0.00 | 0.00 | 68 | 1016.3 | |
| 20260505215517 | 12 | 315 | 1.6 | 6.4 | 0.00 | 0.00 | 0.00 | 67 | 1016.3 |
| 20260505214517 | 12 | 315 | 1.6 | 4.8 | 0.00 | 0.00 | 0.00 | 66 | 1016.2 |
| 20260505213516 | 12 | 0 | 1.6 | 6.4 | 0.00 | 0.00 | 0.00 | 66 | 1016.1 |
| 20260505212517 | 13 | 0.0 | 3.2 | 0.00 | 0.00 | 0.00 | 66 | 1016.1 | |
| 20260505211516 | 13 | 0.0 | 3.2 | 0.00 | 0.00 | 0.00 | 67 | 1016.0 | |
| 20260505210536 | 13 | 293 | 1.6 | 3.2 | 0.00 | 0.00 | 0.00 | 67 | 1015.9 |
| 20260505205537 | 13 | 293 | 1.6 | 4.8 | 0.00 | 0.00 | 0.00 | 66 | 1015.8 |
| 20260505204516 | 13 | 0.0 | 3.2 | 0.00 | 0.00 | 0.00 | 67 | 1015.8 | |
| 20260505203517 | 13 | 0.0 | 1.6 | 0.00 | 0.00 | 0.00 | 66 | 1015.7 | |
| 20260505202537 | 13 | 0.0 | 3.2 | 0.00 | 0.00 | 0.00 | 67 | 1015.6 | |
| 20260505201517 | 13 | 0.0 | 1.6 | 0.00 | 0.00 | 0.00 | 67 | 1015.6 | |
| 20260505200517 | 13 | 0.0 | 1.6 | 0.00 | 0.00 | 0.00 | 67 | 1015.5 | |
| 20260505195517 | 13 | 0.0 | 0.0 | 0.00 | 0.00 | 0.00 | 68 | 1015.3 | |
| 20260505194517 | 13 | 0.0 | 1.6 | 0.00 | 0.00 | 0.00 | 66 | 1015.2 | |
| 20260505193536 | 14 | 0.0 | 0.0 | 0.00 | 0.00 | 0.00 | 66 | 1015.2 | |
| 20260505192517 | 14 | 0.0 | 1.6 | 0.00 | 0.00 | 0.00 | 65 | 1015.1 | |
| 20260505191536 | 14 | 0.0 | 1.6 | 0.00 | 0.00 | 0.00 | 64 | 1015.0 | |
| 20260505190517 | 15 | 0.0 | 1.6 | 0.00 | 0.00 | 0.00 | 63 | 1014.9 | |
| 20260505185517 | 15 | 0.0 | 1.6 | 0.00 | 0.00 | 0.00 | 62 | 1015.0 | |
| 20260505184537 | 15 | 0.0 | 1.6 | 0.00 | 0.00 | 0.00 | 61 | 1014.9 | |
| 20260505183517 | 15 | 0.0 | 1.6 | 0.00 | 0.00 | 0.00 | 59 | 1014.9 | |
| 20260505182517 | 15 | 0.0 | 0.0 | 0.00 | 0.00 | 0.00 | 58 | 1014.8 | |
| 20260505181517 | 15 | 0.0 | 1.6 | 0.00 | 0.00 | 0.00 | 57 | 1014.8 | |
| 20260505180517 | 15 | 0.0 | 1.6 | 0.00 | 0.00 | 0.00 | 57 | 1014.8 | |
| 20260505175517 | 15 | 0.0 | 1.6 | 0.00 | 0.00 | 0.00 | 56 | 1014.8 | |
| 20260505174517 | 15 | 0.0 | 0.0 | 0.00 | 0.00 | 0.00 | 56 | 1014.8 | |
| 20260505173537 | 16 | 0.0 | 1.6 | 0.00 | 0.00 | 0.00 | 55 | 1014.8 | |
| 20260505172517 | 16 | 0.0 | 1.6 | 0.00 | 0.00 | 0.00 | 55 | 1014.9 | |
| 20260505171517 | 16 | 0.0 | 1.6 | 0.00 | 0.00 | 0.00 | 54 | 1014.9 | |
| 20260505170537 | 16 | 0.0 | 1.6 | 0.00 | 0.00 | 0.00 | 54 | 1015.0 | |
| 20260505165517 | 16 | 0.0 | 3.2 | 0.00 | 0.00 | 0.00 | 53 | 1014.9 | |
| 20260505164517 | 16 | 270 | 1.6 | 3.2 | 0.00 | 0.00 | 0.00 | 52 | 1014.8 |
| 20260505163517 | 16 | 270 | 1.6 | 6.4 | 0.00 | 0.00 | 0.00 | 50 | 1014.9 |
| 20260505162517 | 16 | 0.0 | 1.6 | 0.00 | 0.00 | 0.00 | 51 | 1015.0 | |
| 20260505161517 | 16 | 0.0 | 1.6 | 0.00 | 0.00 | 0.00 | 51 | 1015.0 | |
| 20260505160517 | 16 | 0.0 | 1.6 | 0.00 | 0.00 | 0.00 | 53 | 1015.0 | |
| 20260505152517 | 17 | 293 | 1.6 | 6.4 | 0.00 | 0.00 | 0.00 | 53 | 1015.1 |
| 20260505151517 | 17 | 0.0 | 3.2 | 0.00 | 0.00 | 0.00 | 53 | 1015.1 | |
| 20260505150517 | 17 | 0.0 | 1.6 | 0.00 | 0.00 | 0.00 | 53 | 1015.1 | |
| 20260505140518 | 17 | 23 | 1.6 | 4.8 | 0.00 | 0.00 | 0.00 | 53 | 1015.3 |
| 20260505124517 | 20 | 225 | 1.6 | 6.4 | 0.00 | 0.00 | 0.00 | 56 | 1015.5 |
| 20260505123517 | 20 | 0.0 | 6.4 | 0.00 | 0.00 | 0.00 | 54 | 1015.5 | |
| 20260505122517 | 19 | 293 | 1.6 | 6.4 | 0.00 | 0.00 | 0.00 | 54 | 1015.7 |
| 20260505121517 | 18 | 0 | 1.6 | 6.4 | 0.00 | 0.00 | 0.00 | 56 | 1015.7 |
| 20260505120517 | 18 | 293 | 1.6 | 6.4 | 0.00 | 0.00 | 0.00 | 55 | 1015.7 |
| 20260505115537 | 18 | 0.0 | 3.2 | 0.00 | 0.00 | 0.00 | 56 | 1015.7 | |
| 20260505114517 | 18 | 0.0 | 4.8 | 0.00 | 0.00 | 0.00 | 56 | 1015.7 | |
| 20260505113517 | 18 | 338 | 1.6 | 3.2 | 0.00 | 0.00 | 0.00 | 59 | 1015.9 |
| 20260505112537 | 18 | 0.0 | 3.2 | 0.00 | 0.00 | 0.00 | 59 | 1015.8 | |
| 20260505111517 | 18 | 0 | 1.6 | 6.4 | 0.00 | 0.00 | 0.00 | 61 | 1015.9 |
| 20260505110537 | 17 | 338 | 1.6 | 4.8 | 0.00 | 0.00 | 0.00 | 62 | 1016.0 |
| 20260505101517 | 17 | 0.0 | 3.2 | 0.00 | 0.00 | 0.00 | 65 | 1016.1 | |
| 20260505100517 | 17 | 338 | 1.6 | 6.4 | 0.00 | 0.00 | 0.00 | 63 | 1016.1 |
| 20260505095517 | 17 | 0 | 1.6 | 4.8 | 0.00 | 0.00 | 0.00 | 66 | 1016.1 |
| 20260505094517 | 17 | 315 | 1.6 | 3.2 | 0.00 | 0.00 | 0.00 | 69 | 1016.2 |
| 20260505093517 | 16 | 0 | 3.2 | 9.7 | 0.00 | 0.00 | 0.00 | 68 | 1016.4 |
| 20260505092517 | 16 | 270 | 1.6 | 8.0 | 0.00 | 0.00 | 0.00 | 68 | 1016.5 |
| 20260505091537 | 16 | 0 | 1.6 | 12.9 | 0.00 | 0.00 | 0.00 | 69 | 1016.5 |
| 20260505090517 | 16 | 315 | 1.6 | 8.0 | 0.00 | 0.00 | 0.00 | 71 | 1016.5 |
| 20260505085517 | 15 | 23 | 1.6 | 8.0 | 0.00 | 0.00 | 0.00 | 66 | 1016.5 |
| 20260505084517 | 15 | 0 | 1.6 | 8.0 | 0.00 | 0.00 | 0.00 | 67 | 1016.5 |
| 20260505083515 | 15 | 0 | 1.6 | 4.8 | 0.00 | 0.00 | 0.00 | 70 | 1016.4 |
| 20260505082517 | 15 | 315 | 1.6 | 3.2 | 0.00 | 0.00 | 0.00 | 69 | 1016.5 |
| 20260505081517 | 15 | 0.0 | 4.8 | 0.00 | 0.00 | 0.00 | 71 | 1016.5 | |
| 20260505080517 | 14 | 338 | 1.6 | 4.8 | 0.00 | 0.00 | 0.00 | 74 | 1016.6 |
| 20260505075517 | 13 | 0 | 1.6 | 6.4 | 0.00 | 0.00 | 0.00 | 77 | 1016.5 |
| 20260505074517 | 13 | 338 | 1.6 | 9.7 | 0.00 | 0.00 | 0.00 | 78 | 1016.6 |
| 20260505073517 | 13 | 45 | 1.6 | 3.2 | 0.00 | 0.00 | 0.00 | 81 | 1016.5 |